sat.trackr.live / text

‹ back to catalog

FOSSASAT-2E18 (TAT-A)

NORAD 62686 · 2025-009CF

PAYLOAD ACTIVE UNKNOWN

§ Identity

Operator
Country
SPN
Launch date
2025-01-14
Launch site
AFWTR
Launch vehicle
Mass (kg)
RCS (m²)

External: N2YO · Heavens-Above · Gunter

§ Orbital elements

Epoch: 2026-09-22T17:51:10.260864Z

Period
94.65 min
Inclination
97.3908°
Eccentricity
0.0005889
Mean motion
15.21469345 rev/d
Perigee alt
497.4 km
Apogee alt
505.5 km
Semi-major
6,879.5 km
B*
8.9584e-5
RAAN
342.3338°
Arg perigee
11.1227°
Mean anomaly
349.0138°
Rev number
9,352

§ Raw data

FOSSASAT-2E18 (TAT-A)1 62686U 25009CF  26265.74386876  .00001945  00000+0  89584-4 0  99902 62686  97.3908 342.3338 0005889  11.1227 349.0138 15.21469345 93523

JSON: /api/v1/satellites/62686 · /tle

For live sub-satellite position, see the globe view (requires WebGL).

§ Visibility from observer

Set your observer location to see the next 7 days of passes ≥ 10°. The values pass through the URL so the page stays shareable.

No JS? Fill the form by hand. The geolocation button needs JavaScript.

§ Radio — SatNOGS DB

ModeDescriptionDownlinkUplink
LoRa Mode U - LoRa 401.700 MHz

1 transmitter · refreshed weekly from db.satnogs.org